Date String (YYYY-MM-DD hh:mm:ss) UTC,Instrument flags,Ambient pressure (hPa),Sample flow (lpm),Bypass flow (lpm),Sample temperature (°C),Ambient temperature (°C),ASC tube jacket temperature (°C),LED temperature (°C),Box temperature (°C),Sample RH (%),Span deviation,Mass concentration (μg/m³),Mass concentration (μg/m³),Mass concentration (μg/m³)
DateTimeUTC,F1_M11,P_M11,Q1_M11,Q2_M11,T1_M11,T2_M11,T3_M11,T4_M11,T5_M11,U1_M11,ZSPAN_M11,X2_M11,X0_M11,X1_M11
2022-03-15 16:00:00,,0828.6,5.00,0.00,23.0,22.4,00.0,31.9,24.8,10.9,0000.0,0003.80,0008.40,0003.07
2022-03-15 16:01:00,,0828.5,5.00,0.00,23.0,22.4,00.0,31.9,24.9,11.0,0000.0,0003.81,0008.38,0003.08
2022-03-15 16:02:00,,0828.7,5.00,0.00,23.0,22.4,00.0,31.9,24.9,11.4,0000.0,0003.78,0008.24,0003.09
2022-03-15 16:03:00,,0828.6,4.99,0.00,23.0,22.4,00.0,31.9,24.9,11.8,0000.0,0003.73,0008.14,0003.08
2022-03-15 16:04:00,,0828.5,5.00,0.00,23.0,22.4,00.0,31.9,24.9,11.7,0000.0,0003.73,0008.21,0003.07
2022-03-15 16:05:00,,0828.8,5.00,0.00,23.1,22.5,00.0,31.9,24.9,11.4,0000.0,0003.74,0008.26,0003.06
2022-03-15 16:06:00,,0829.1,4.99,0.00,23.1,22.5,00.0,31.9,24.9,11.4,0000.0,0003.71,0008.18,0003.06
2022-03-15 16:07:00,,0828.5,5.00,0.00,23.1,22.5,00.0,31.9,24.9,11.9,0000.0,0003.69,0008.49,0003.05
2022-03-15 16:08:00,,0828.6,5.00,0.00,23.1,22.5,00.0,32.0,24.9,11.6,0000.0,0003.67,0008.49,0003.05
2022-03-15 16:09:00,,0828.6,5.00,0.00,23.1,22.5,00.0,32.0,24.9,11.3,0000.0,0003.61,0008.23,0003.04
2022-03-15 16:10:00,,0828.6,5.00,0.00,23.1,22.5,00.0,32.0,24.9,11.3,0000.0,0003.60,0007.68,0003.05
2022-03-15 16:11:00,,0828.6,5.01,0.00,23.1,22.5,00.0,32.0,25.0,11.4,0000.0,0003.57,0007.58,0003.04
2022-03-15 16:12:00,,0828.5,5.00,0.00,23.1,22.5,00.0,32.0,25.0,11.5,0000.0,0003.58,0007.61,0003.05
2022-03-15 16:13:00,,0828.5,5.00,0.00,23.2,22.6,00.0,32.0,25.0,11.4,0000.0,0003.59,0007.79,0003.04
2022-03-15 16:14:00,,0829.0,4.99,0.00,23.2,22.6,00.0,32.0,25.0,11.4,0000.0,0003.61,0007.99,0003.04
2022-03-15 16:15:00,,0828.8,5.01,0.00,23.2,22.6,00.0,32.0,25.0,11.7,0000.0,0003.63,0008.25,0003.05
2022-03-15 16:16:00,,0828.6,5.00,0.00,23.2,22.6,00.0,32.0,25.0,11.6,0000.0,0003.64,0008.23,0003.07
2022-03-15 16:17:00,,0828.8,5.00,0.00,23.2,22.7,00.0,32.1,25.1,11.4,0000.0,0003.67,0008.34,0003.08
2022-03-15 16:18:00,,0829.1,5.00,0.00,23.3,22.7,00.0,32.1,25.1,11.3,0000.0,0003.66,0007.97,0003.09
2022-03-15 16:19:00,,0828.7,5.00,0.00,23.3,22.7,00.0,32.1,25.1,11.7,0000.0,0003.68,0008.00,0003.09
2022-03-15 16:20:00,,0828.8,4.99,0.00,23.3,22.7,00.0,32.1,25.1,11.7,0000.0,0003.71,0008.17,0003.09
2022-03-15 16:21:00,,0829.0,5.01,0.00,23.3,22.7,00.0,32.1,25.1,11.5,0000.0,0003.69,0008.00,0003.07
2022-03-15 16:22:00,,0828.6,5.00,0.00,23.3,22.7,00.0,32.2,25.2,11.7,0000.0,0003.68,0008.24,0003.07
2022-03-15 16:23:00,,0828.5,5.00,0.00,23.3,22.8,00.0,32.2,25.2,12.0,0000.0,0003.69,0008.98,0003.06
2022-03-15 16:24:00,,0828.5,5.00,0.00,23.4,22.8,00.0,32.2,25.2,11.9,0000.0,0003.68,0008.79,0003.06
2022-03-15 16:25:00,,0828.4,5.00,0.00,23.4,22.8,00.0,32.2,25.2,11.8,0000.0,0003.65,0009.13,0003.06
2022-03-15 16:26:00,,0828.4,4.99,0.00,23.4,22.8,00.0,32.2,25.2,11.7,0000.0,0003.65,0009.53,0003.06
2022-03-15 16:27:00,,0828.4,5.00,0.00,23.4,22.8,00.0,32.2,25.2,11.7,0000.0,0003.67,0009.76,0003.07
2022-03-15 16:28:00,,0828.4,5.00,0.00,23.4,22.8,00.0,32.2,25.2,11.8,0000.0,0003.70,0010.58,0003.07
2022-03-15 16:29:00,,0828.4,5.00,0.00,23.4,22.9,00.0,32.3,25.3,11.8,0000.0,0003.69,0010.63,0003.06
2022-03-15 16:30:00,,0828.3,5.00,0.00,23.5,22.9,00.0,32.3,25.3,11.7,0000.0,0003.74,0010.83,0003.08
2022-03-15 16:31:00,,0828.3,5.00,0.00,23.5,22.9,00.0,32.3,25.3,11.8,0000.0,0003.76,0010.75,0003.08
2022-03-15 16:32:00,,0828.3,5.00,0.00,23.5,22.9,00.0,32.3,25.3,12.0,0000.0,0003.78,0010.78,0003.08
2022-03-15 16:33:00,,0828.3,5.00,0.00,23.5,22.9,00.0,32.3,25.3,11.9,0000.0,0003.80,0010.70,0003.10
2022-03-15 16:34:00,,0828.2,5.01,0.00,23.5,23.0,00.0,32.3,25.4,12.0,0000.0,0003.76,0009.69,0003.09
2022-03-15 16:35:00,,0828.3,5.00,0.00,23.6,23.0,00.0,32.4,25.4,11.9,0000.0,0003.74,0009.67,0003.09
2022-03-15 16:36:00,,0828.6,5.00,0.00,23.6,23.0,00.0,32.4,25.5,11.8,0000.0,0003.76,0009.27,0003.11
2022-03-15 16:37:00,,0828.1,5.00,0.00,23.6,23.0,00.0,32.4,25.5,11.9,0000.0,0003.78,0008.65,0003.11
2022-03-15 16:38:00,,0828.2,5.00,0.00,23.6,23.1,00.0,32.4,25.5,11.8,0000.0,0003.77,0008.42,0003.12
2022-03-15 16:39:00,,0828.1,5.00,0.00,23.7,23.1,00.0,32.4,25.5,11.3,0000.0,0003.76,0007.56,0003.11
2022-03-15 16:40:00,,0828.1,5.01,0.00,23.7,23.1,00.0,32.5,25.5,11.5,0000.0,0003.78,0008.17,0003.11
2022-03-15 16:41:00,,0828.1,5.00,0.00,23.7,23.1,00.0,32.5,25.5,11.8,0000.0,0003.72,0008.24,0003.11
2022-03-15 16:42:00,,0828.1,5.00,0.00,23.7,23.1,00.0,32.5,25.5,11.8,0000.0,0003.72,0008.32,0003.11
2022-03-15 16:43:00,,0828.2,4.99,0.00,23.7,23.2,00.0,32.5,25.6,11.8,0000.0,0003.72,0008.38,0003.14
2022-03-15 16:44:00,,0828.1,5.00,0.00,23.8,23.2,00.0,32.5,25.6,11.6,0000.0,0003.69,0008.82,0003.14
2022-03-15 16:45:00,,0828.3,5.00,0.00,23.8,23.2,00.0,32.6,25.6,11.9,0000.0,0003.72,0008.90,0003.15
2022-03-15 16:46:00,,0828.3,5.00,0.00,23.8,23.2,00.0,32.6,25.6,11.8,0000.0,0003.73,0008.90,0003.16
2022-03-15 16:47:00,,0828.3,5.00,0.00,23.8,23.2,00.0,32.6,25.6,11.5,0000.0,0003.74,0009.02,0003.16
2022-03-15 16:48:00,,0828.2,5.00,0.00,23.8,23.2,00.0,32.6,25.7,11.6,0000.0,0003.74,0008.94,0003.17
2022-03-15 16:49:00,,0828.2,5.00,0.00,23.8,23.2,00.0,32.6,25.7,11.5,0000.0,0003.75,0008.89,0003.17
2022-03-15 16:50:00,,0828.1,5.00,0.00,23.9,23.3,00.0,32.7,25.7,12.0,0000.0,0003.73,0008.81,0003.17
2022-03-15 16:51:00,,0828.1,5.00,0.00,23.9,23.3,00.0,32.7,25.7,12.0,0000.0,0003.71,0008.18,0003.18
2022-03-15 16:52:00,,0828.0,5.00,0.00,23.9,23.3,00.0,32.7,25.8,12.1,0000.0,0003.73,0008.02,0003.18
2022-03-15 16:53:00,,0828.0,5.00,0.00,23.9,23.4,00.0,32.7,25.9,12.1,0000.0,0003.71,0007.98,0003.17
2022-03-15 16:54:00,,0828.1,4.99,0.00,24.0,23.4,00.0,32.7,25.9,11.9,0000.0,0003.74,0008.53,0003.17
2022-03-15 16:55:00,,0828.1,5.00,0.00,24.0,23.4,00.0,32.8,25.9,11.7,0000.0,0003.75,0008.35,0003.17
2022-03-15 16:56:00,,0828.0,5.00,0.00,24.0,23.4,00.0,32.8,25.9,11.2,0000.0,0003.77,0008.30,0003.16
2022-03-15 16:57:00,,0828.0,5.00,0.00,24.0,23.4,00.0,32.8,25.9,11.8,0000.0,0003.80,0008.74,0003.16
2022-03-15 16:58:00,,0828.0,5.01,0.00,24.0,23.4,00.0,32.8,25.9,12.0,0000.0,0003.84,0008.98,0003.17
2022-03-15 16:59:00,,0828.0,5.00,0.00,24.1,23.4,00.0,32.8,26.0,11.5,0000.0,0003.84,0008.94,0003.18
